Погода в Скиросе

Греция     38°51′51″N   24°33′12″E
темп.,
°C
ветер,
м/с
пор.,
м/с
влажн.,
%
обл.,
%
осадки,
мм/ч
давл.,
гПа
погр.,
м
8 августа, пн
пн800:00+26ссв914690 0.0 1008455
03:00+25ссв1117690 0.0 1008726
06:00+25ссв1217710 0.0 1008762
09:00+25ссв1216720 0.0 1010867
12:00+26ссв1114700 0.0 1011756
15:00+27с913600 0.0 1009398
18:00+27ссз811630 0.0 1008256
21:00+27ссв813590 0.0 1008256
9 августа, вт
вт900:00+26ссв1018610 0.0 1009472
03:00+25ссв914680 0.0 1009615
06:00+25ссв1016700 0.0 1009758
09:00+26ссв1217630 0.0 1010787
12:00+27ссв1014570 0.0 1011523
15:00+28с912510 0.0 1010296
18:00+27сз810590 0.0 1009223
21:00+26сз710690 0.0 1009134
10 августа, ср
ср1000:00+26с68680 0.0 101099
03:00+26с610650 0.0 1009131
06:00+26с611630 0.0 1009181
09:00+26с69600 0.0 1010247
12:00+27с811570 0.0 1011318
15:00+27с67580 0.0 1010223
18:00+27сз78600 0.0 1009186
21:00+26сз69710 0.0 1009115
11 августа, чт
чт1100:00+27ссв68610 0.0 1010105
03:00+27ссв1015591 0.0 1009372
06:00+25св1117695 0.0 1010460
09:00+25ссв812705 0.0 1011525
12:00+26с68685 0.0 1012355
15:00+26ссз79623 0.0 1012339
18:00+26сз78640 0.0 1011220
21:00+25сз810730 0.0 1011240
12 августа, пт
пт1200:00+25сз710744 0.0 1012243
03:00+25ссз811810 0.0 1011330
06:00+25сз78820 0.1 1011195
09:00+26ссз710710 0.1 1012345
12:00+27ссз810670 0.0 1012355
15:00+27ссз810660 0.0 1011286
18:00+26сз810680 0.0 1010258
21:00+26сз811760 0.0 1010212